< < Back
Terminal Aerodrome Forecast


Current Version              Previous Versions:   1  2  3  4  5  6  7  8  9  

Terminal Aerodrome Forecast

523
FTUS42 KFFC 211100
TAFCSG
TAF
KCSG 211122Z 2112/2212 33004KT 6SM BR FEW010 SCT150
     FM211400 32005KT P6SM SCT025
     FM211700 31007KT P6SM SCT045
     FM220200 30002KT P6SM SKC=

Latest METAR

426
SAUS70 KWBC 212354
MTRCSG
METAR KCSG 212351Z 07003KT 10SM CLR 28/21 A3008 RMK AO2 SLP179 T02830211
10356 20278 58001


USA.gov is the U.S. government's official web portal to all federal, state and local government web resources and services.